Location: Unspecified
(0.0000°N, 0.0000°E)
Time: 12:40:12
(UTC+00:00)

LightSail 2 - Pass Details

Date: 05 December 2019
Orbit: 696 x 729 km, 24.0° (Epoch: 10 December)

Event Time Altitude Azimuth Distance (km) Brightness Sun altitude
Exits shadow 03:15:24 11° 178° (S) 2,100 7.8 -35.4°
Drops below altitude 10° 03:15:51 10° 173° (S) 2,165 8.0 -35.3°
Sets 03:19:42 0° 145° (SE) 3,093 9.3 -34.4°
